| time (UTC) | temp F | wind direction | speed knots | gust knots | rain 1hr in | rain 24hr in | rain mn in | humidity % | barometer mb |
| 20260506095747 | 61 | 195 | 0.0 | 5.2 | 0.00 | 0.00 | 0.00 | 69 | 1011.1 |
| 20260506095244 | 60 | 249 | 1.7 | 2.6 | 0.00 | 0.00 | 0.00 | 67 | 1011.1 |
| 20260506094740 | 61 | 227 | 1.7 | 2.6 | 0.00 | 0.00 | 0.00 | 66 | 1011.0 |
| 20260506094239 | 61 | 148 | 1.7 | 3.5 | 0.00 | 0.00 | 0.00 | 69 | 1010.9 |
| 20260506093737 | 62 | 177 | 3.5 | 6.1 | 0.00 | 0.00 | 0.00 | 64 | 1011.1 |
| 20260506093234 | 62 | 247 | 4.3 | 6.1 | 0.00 | 0.00 | 0.00 | 60 | 1011.0 |
| 20260506092732 | 62 | 243 | 3.5 | 7.0 | 0.00 | 0.00 | 0.00 | 60 | 1011.0 |
| 20260506092229 | 62 | 206 | 5.2 | 7.0 | 0.00 | 0.00 | 0.00 | 60 | 1011.1 |
| 20260506091726 | 62 | 194 | 1.7 | 5.2 | 0.00 | 0.00 | 0.00 | 61 | 1011.0 |
| 20260506091224 | 62 | 219 | 2.6 | 3.5 | 0.00 | 0.00 | 0.00 | 61 | 1010.7 |
| 20260506090722 | 62 | 202 | 0.9 | 2.6 | 0.00 | 0.00 | 0.00 | 62 | 1010.9 |
| 20260506090218 | 61 | 216 | 2.6 | 3.5 | 0.00 | 0.00 | 0.00 | 61 | 1010.7 |
| 20260506085715 | 62 | 254 | 2.6 | 3.5 | 0.00 | 0.00 | 0.00 | 61 | 1010.8 |
| 20260506085211 | 62 | 222 | 1.7 | 3.5 | 0.00 | 0.00 | 0.00 | 60 | 1010.7 |
| 20260506084708 | 61 | 230 | 4.3 | 7.0 | 0.00 | 0.00 | 0.00 | 59 | 1010.9 |
| 20260506084159 | 62 | 164 | 3.5 | 6.1 | 0.00 | 0.00 | 0.00 | 61 | 1010.9 |
| 20260506083656 | 61 | 216 | 1.7 | 6.1 | 0.00 | 0.00 | 0.00 | 63 | 1010.9 |
| 20260506083154 | 61 | 253 | 1.7 | 3.5 | 0.00 | 0.00 | 0.00 | 61 | 1011.0 |
| 20260506082651 | 61 | 258 | 2.6 | 5.2 | 0.00 | 0.00 | 0.00 | 60 | 1011.1 |
| 20260506082151 | 62 | 194 | 3.5 | 6.1 | 0.00 | 0.00 | 0.00 | 58 | 1011.2 |
| 20260506081649 | 62 | 223 | 3.5 | 7.8 | 0.00 | 0.00 | 0.00 | 58 | 1011.2 |
| 20260506081147 | 61 | 268 | 3.5 | 7.0 | 0.00 | 0.00 | 0.00 | 59 | 1011.1 |
| 20260506080644 | 60 | 199 | 3.5 | 6.1 | 0.00 | 0.00 | 0.00 | 62 | 1011.2 |
| 20260506080141 | 60 | 233 | 2.6 | 3.5 | 0.00 | 0.00 | 0.00 | 64 | 1011.5 |
| 20260506073125 | 57 | 259 | 0.0 | 2.6 | 0.00 | 0.00 | 0.00 | 67 | 1011.5 |
| 20260506072621 | 57 | 180 | 0.9 | 1.7 | 0.00 | 0.00 | 0.00 | 67 | 1011.5 |
| 20260506072119 | 58 | 230 | 0.0 | 0.9 | 0.00 | 0.00 | 0.00 | 65 | 1011.6 |
| 20260506071617 | 58 | 246 | 0.0 | 0.9 | 0.00 | 0.00 | 0.00 | 65 | 1011.5 |
| 20260506071114 | 57 | 240 | 0.0 | 0.9 | 0.00 | 0.00 | 0.00 | 66 | 1011.5 |
| 20260506070611 | 58 | 172 | 0.9 | 1.7 | 0.00 | 0.00 | 0.00 | 65 | 1011.6 |
| 20260506070108 | 60 | 265 | 0.9 | 1.7 | 0.00 | 0.00 | 0.00 | 61 | 1011.4 |
| 20260506062045 | 60 | 228 | 0.9 | 1.7 | 0.00 | 0.00 | 0.00 | 60 | 1011.9 |
| 20260506061541 | 61 | 179 | 0.9 | 3.5 | 0.00 | 0.00 | 0.00 | 60 | 1011.7 |
| 20260506061038 | 61 | 185 | 0.0 | 1.7 | 0.00 | 0.00 | 0.00 | 58 | 1011.9 |
| 20260506060537 | 61 | 204 | 1.7 | 2.6 | 0.00 | 0.00 | 0.00 | 57 | 1012.2 |
| 20260506051006 | 62 | 260 | 2.6 | 2.6 | 0.00 | 0.00 | 0.00 | 56 | 1012.9 |
| 20260506050503 | 62 | 247 | 1.7 | 2.6 | 0.00 | 0.00 | 0.00 | 56 | 1012.7 |
| 20260506044954 | 62 | 242 | 2.6 | 5.2 | 0.00 | 0.00 | 0.00 | 54 | 1013.2 |
| 20260506044452 | 62 | 214 | 1.7 | 1.7 | 0.00 | 0.00 | 0.00 | 56 | 1013.3 |
| 20260506043948 | 61 | 273 | 4.3 | 6.1 | 0.00 | 0.00 | 0.00 | 57 | 1013.2 |
| 20260506043445 | 60 | 220 | 0.0 | 3.5 | 0.00 | 0.00 | 0.00 | 60 | 1013.2 |
| 20260506042943 | 59 | 242 | 0.9 | 2.6 | 0.00 | 0.00 | 0.00 | 61 | 1013.3 |
| 20260506042443 | 59 | 197 | 1.7 | 1.7 | 0.00 | 0.00 | 0.00 | 64 | 1013.0 |
| 20260506041940 | 58 | 241 | 0.0 | 2.6 | 0.00 | 0.00 | 0.00 | 62 | 1013.3 |
| 20260506041438 | 57 | 67 | 0.9 | 2.6 | 0.00 | 0.00 | 0.00 | 63 | 1013.0 |
| 20260506040935 | 57 | 114 | 0.0 | 0.9 | 0.00 | 0.00 | 0.00 | 64 | 1012.8 |
| 20260506040432 | 58 | 297 | 0.0 | 0.0 | 0.00 | 0.00 | 0.00 | 63 | 1012.9 |
| 20260506035928 | 59 | 231 | 0.0 | 1.7 | 0.00 | 0.00 | 0.00 | 62 | 1013.0 |
| 20260506035426 | 59 | 179 | 2.6 | 2.6 | 0.00 | 0.00 | 0.00 | 60 | 1013.2 |
| 20260506034922 | 58 | 231 | 0.9 | 1.7 | 0.00 | 0.00 | 0.00 | 62 | 1012.9 |
| 20260506034420 | 59 | 159 | 0.0 | 0.0 | 0.00 | 0.00 | 0.00 | 62 | 1013.2 |
| 20260506033917 | 57 | 238 | 0.0 | 0.0 | 0.00 | 0.00 | 0.00 | 63 | 1012.9 |
| 20260506033414 | 57 | 96 | 0.9 | 1.7 | 0.00 | 0.00 | 0.00 | 64 | 1013.0 |
| 20260506032911 | 59 | 257 | 0.0 | 0.9 | 0.00 | 0.00 | 0.00 | 62 | 1013.0 |
| 20260506032408 | 57 | 257 | 0.0 | 0.9 | 0.00 | 0.00 | 0.00 | 64 | 1013.2 |
| 20260506031904 | 57 | 78 | 0.0 | 0.0 | 0.00 | 0.00 | 0.00 | 64 | 1013.4 |
| 20260506031401 | 57 | 54 | 0.0 | 0.9 | 0.00 | 0.00 | 0.00 | 64 | 1013.5 |
| 20260506030859 | 58 | 40 | 0.0 | 0.9 | 0.00 | 0.00 | 0.00 | 64 | 1013.2 |
| 20260506030357 | 58 | 244 | 0.0 | 0.9 | 0.00 | 0.00 | 0.00 | 62 | 1013.4 |
| 20260506025854 | 59 | 187 | 0.0 | 0.9 | 0.00 | 0.00 | 0.00 | 62 | 1013.4 |
| 20260506025350 | 59 | 239 | 0.0 | 0.0 | 0.00 | 0.00 | 0.00 | 61 | 1013.4 |
| 20260506024847 | 59 | 274 | 0.0 | 0.9 | 0.00 | 0.00 | 0.00 | 59 | 1013.7 |
| 20260506024344 | 59 | 70 | 0.0 | 0.9 | 0.00 | 0.00 | 0.00 | 59 | 1013.6 |
| 20260506023840 | 59 | 90 | 0.0 | 0.0 | 0.00 | 0.00 | 0.00 | 60 | 1013.6 |
| 20260506023337 | 60 | 145 | 0.0 | 0.9 | 0.00 | 0.00 | 0.00 | 59 | 1013.5 |
| 20260506022834 | 60 | 353 | 0.9 | 0.9 | 0.00 | 0.00 | 0.00 | 55 | 1013.6 |
| 20260506022332 | 60 | 189 | 0.0 | 0.9 | 0.00 | 0.00 | 0.00 | 58 | 1013.6 |
| 20260506021830 | 61 | 204 | 0.0 | 0.9 | 0.00 | 0.00 | 0.00 | 55 | 1013.6 |
| 20260506021326 | 61 | 245 | 0.0 | 0.9 | 0.00 | 0.00 | 0.00 | 55 | 1013.7 |
| 20260506020823 | 62 | 160 | 1.7 | 3.5 | 0.00 | 0.00 | 0.00 | 54 | 1013.6 |
| 20260506020321 | 62 | 163 | 0.0 | 0.9 | 0.00 | 0.00 | 0.00 | 55 | 1013.4 |
| 20260506015818 | 62 | 137 | 0.0 | 1.7 | 0.00 | 0.00 | 0.00 | 50 | 1013.5 |
| 20260506015316 | 63 | 180 | 0.0 | 1.7 | 0.00 | 0.00 | 0.00 | 50 | 1013.4 |
| 20260506014812 | 64 | 161 | 0.0 | 2.6 | 0.00 | 0.00 | 0.00 | 50 | 1013.6 |
| 20260506014309 | 64 | 265 | 1.7 | 2.6 | 0.00 | 0.00 | 0.00 | 48 | 1013.4 |
| 20260506013806 | 64 | 103 | 2.6 | 2.6 | 0.00 | 0.00 | 0.00 | 49 | 1012.9 |
| 20260506013303 | 64 | 275 | 1.7 | 2.6 | 0.00 | 0.00 | 0.00 | 49 | 1013.2 |
| 20260506012759 | 62 | 278 | 0.9 | 1.7 | 0.00 | 0.00 | 0.00 | 53 | 1013.2 |
| 20260506012256 | 62 | 142 | 0.0 | 0.9 | 0.00 | 0.00 | 0.00 | 55 | 1013.0 |
| 20260506011754 | 63 | 109 | 0.0 | 0.0 | 0.00 | 0.00 | 0.00 | 54 | 1013.0 |
| 20260506011250 | 63 | 281 | 0.0 | 0.0 | 0.00 | 0.00 | 0.00 | 51 | 1013.0 |
| 20260506010748 | 63 | 235 | 0.0 | 0.0 | 0.00 | 0.00 | 0.00 | 52 | 1013.3 |
| 20260506010245 | 63 | 283 | 0.0 | 0.9 | 0.00 | 0.00 | 0.00 | 51 | 1013.2 |
| 20260506005743 | 63 | 138 | 0.0 | 0.9 | 0.00 | 0.00 | 0.00 | 52 | 1012.8 |
| 20260506005239 | 63 | 110 | 0.0 | 0.9 | 0.00 | 0.00 | 0.00 | 51 | 1012.8 |
| 20260506004735 | 63 | 282 | 0.0 | 1.7 | 0.00 | 0.00 | 0.00 | 55 | 1012.9 |
| 20260506004233 | 64 | 114 | 0.0 | 0.9 | 0.00 | 0.00 | 0.00 | 49 | 1012.7 |
| 20260506003728 | 64 | 127 | 0.0 | 0.9 | 0.00 | 0.00 | 0.00 | 51 | 1012.8 |
| 20260506003225 | 65 | 179 | 0.0 | 1.7 | 0.00 | 0.00 | 0.00 | 49 | 1012.7 |
| 20260506002721 | 64 | 247 | 0.0 | 0.9 | 0.00 | 0.00 | 0.00 | 50 | 1012.7 |
| 20260506002218 | 64 | 121 | 0.0 | 0.9 | 0.00 | 0.00 | 0.00 | 47 | 1012.9 |
| 20260506001713 | 64 | 147 | 0.0 | 0.0 | 0.00 | 0.00 | 0.00 | 49 | 1012.8 |
| 20260506001211 | 65 | 142 | 0.0 | 0.9 | 0.00 | 0.00 | 0.00 | 48 | 1012.8 |
| 20260506000708 | 64 | 234 | 0.0 | 2.6 | 0.00 | 0.00 | 0.00 | 49 | 1012.5 |
| 20260506000206 | 65 | 289 | 0.0 | 1.7 | 0.00 | 0.00 | 0.00 | 45 | 1012.8 |
| 20260505235703 | 66 | 239 | 0.9 | 1.7 | 0.00 | 0.00 | 0.00 | 41 | 1012.6 |
| 20260505235200 | 66 | 207 | 0.9 | 1.7 | 0.00 | 0.00 | 0.00 | 45 | 1012.6 |
| 20260505234657 | 67 | 156 | 0.9 | 1.7 | 0.00 | 0.00 | 0.00 | 41 | 1012.2 |
| 20260505234154 | 68 | 152 | 0.0 | 1.7 | 0.00 | 0.00 | 0.00 | 42 | 1012.2 |
| 20260505233651 | 68 | 125 | 0.0 | 0.9 | 0.00 | 0.00 | 0.00 | 41 | 1012.1 |
| 20260505233149 | 70 | 239 | 0.0 | 1.7 | 0.00 | 0.00 | 0.00 | 35 | 1012.2 |
| 20260505232646 | 71 | 223 | 1.7 | 3.5 | 0.00 | 0.00 | 0.00 | 32 | 1012.3 |
| 20260505232143 | 71 | 181 | 3.5 | 6.1 | 0.00 | 0.00 | 0.00 | 29 | 1012.2 |
| 20260505231640 | 72 | 207 | 4.3 | 8.7 | 0.00 | 0.00 | 0.00 | 30 | 1012.0 |
| 20260505231139 | 74 | 188 | 4.3 | 6.1 | 0.00 | 0.00 | 0.00 | 30 | 1012.4 |
| 20260505230637 | 74 | 130 | 3.5 | 3.5 | 0.00 | 0.00 | 0.00 | 30 | 1012.1 |
| 20260505230133 | 74 | 205 | 7.0 | 9.6 | 0.00 | 0.00 | 0.00 | 28 | 1012.1 |
| 20260505225629 | 75 | 215 | 3.5 | 8.7 | 0.00 | 0.00 | 0.00 | 30 | 1012.2 |
| 20260505225125 | 74 | 232 | 3.5 | 11.3 | 0.00 | 0.00 | 0.00 | 31 | 1012.3 |
| 20260505224622 | 75 | 280 | 5.2 | 7.8 | 0.00 | 0.00 | 0.00 | 30 | 1012.5 |
| 20260505224120 | 74 | 219 | 2.6 | 6.1 | 0.00 | 0.00 | 0.00 | 32 | 1012.5 |
| 20260505223617 | 74 | 214 | 2.6 | 9.6 | 0.00 | 0.00 | 0.00 | 33 | 1012.7 |
| 20260505223113 | 74 | 219 | 3.5 | 6.1 | 0.00 | 0.00 | 0.00 | 34 | 1012.8 |
| 20260505222609 | 73 | 249 | 3.5 | 8.7 | 0.00 | 0.00 | 0.00 | 33 | 1012.7 |
| 20260505222106 | 73 | 246 | 7.0 | 11.3 | 0.00 | 0.00 | 0.00 | 31 | 1012.6 |
| 20260505221603 | 74 | 176 | 6.1 | 9.6 | 0.00 | 0.00 | 0.00 | 31 | 1012.6 |
| 20260505221059 | 75 | 248 | 6.1 | 8.7 | 0.00 | 0.00 | 0.00 | 32 | 1012.6 |
| 20260505220556 | 75 | 273 | 6.1 | 13.9 | 0.00 | 0.00 | 0.00 | 31 | 1012.5 |
| 20260505220054 | 75 | 257 | 4.3 | 8.7 | 0.00 | 0.00 | 0.00 | 32 | 1012.6 |
| 20260505215552 | 73 | 209 | 6.1 | 9.6 | 0.00 | 0.00 | 0.00 | 30 | 1012.7 |
| 20260505215049 | 75 | 223 | 7.8 | 13.0 | 0.00 | 0.00 | 0.00 | 30 | 1012.7 |
| 20260505214548 | 76 | 241 | 10.4 | 16.5 | 0.00 | 0.00 | 0.00 | 28 | 1012.6 |
| 20260505214044 | 76 | 214 | 5.2 | 12.2 | 0.00 | 0.00 | 0.00 | 30 | 1012.6 |
| 20260505213542 | 76 | 354 | 3.5 | 8.7 | 0.00 | 0.00 | 0.00 | 30 | 1012.6 |
| 20260505213038 | 76 | 205 | 8.7 | 13.0 | 0.00 | 0.00 | 0.00 | 26 | 1012.8 |
| 20260505212535 | 76 | 243 | 2.6 | 11.3 | 0.00 | 0.00 | 0.00 | 28 | 1012.6 |
| 20260505212032 | 76 | 228 | 9.6 | 13.9 | 0.00 | 0.00 | 0.00 | 28 | 1012.4 |
| 20260505211529 | 76 | 220 | 9.6 | 14.8 | 0.00 | 0.00 | 0.00 | 26 | 1012.6 |
| 20260505211025 | 76 | 200 | 6.1 | 7.8 | 0.00 | 0.00 | 0.00 | 27 | 1012.4 |
| 20260505210522 | 76 | 192 | 7.8 | 11.3 | 0.00 | 0.00 | 0.00 | 26 | 1012.3 |
| 20260505210020 | 76 | 212 | 10.4 | 15.6 | 0.00 | 0.00 | 0.00 | 26 | 1012.5 |
| 20260505205518 | 76 | 250 | 4.3 | 18.2 | 0.00 | 0.00 | 0.00 | 24 | 1012.3 |
| 20260505205014 | 76 | 224 | 4.3 | 13.9 | 0.00 | 0.00 | 0.00 | 25 | 1012.5 |
| 20260505204512 | 76 | 218 | 5.2 | 13.0 | 0.00 | 0.00 | 0.00 | 26 | 1012.4 |
| 20260505204009 | 77 | 203 | 6.1 | 12.2 | 0.00 | 0.00 | 0.00 | 25 | 1012.3 |
| 20260505203506 | 77 | 236 | 6.1 | 13.0 | 0.00 | 0.00 | 0.00 | 28 | 1012.3 |
| 20260505203003 | 77 | 237 | 7.0 | 13.0 | 0.00 | 0.00 | 0.00 | 26 | 1012.4 |
| 20260505202459 | 77 | 194 | 6.1 | 19.1 | 0.00 | 0.00 | 0.00 | 27 | 1012.3 |
| 20260505201954 | 77 | 223 | 3.5 | 12.2 | 0.00 | 0.00 | 0.00 | 24 | 1012.3 |
| 20260505201452 | 76 | 235 | 5.2 | 13.0 | 0.00 | 0.00 | 0.00 | 26 | 1012.5 |
| 20260505200949 | 76 | 225 | 5.2 | 11.3 | 0.00 | 0.00 | 0.00 | 27 | 1012.5 |
| 20260505200447 | 76 | 208 | 3.5 | 13.9 | 0.00 | 0.00 | 0.00 | 30 | 1012.5 |
| 20260505195943 | 75 | 196 | 7.8 | 13.9 | 0.00 | 0.00 | 0.00 | 27 | 1012.6 |
| 20260505195440 | 76 | 168 | 7.8 | 13.9 | 0.00 | 0.00 | 0.00 | 27 | 1012.4 |
| 20260505194937 | 76 | 293 | 7.8 | 12.2 | 0.00 | 0.00 | 0.00 | 28 | 1012.4 |
| 20260505194434 | 77 | 233 | 3.5 | 6.1 | 0.00 | 0.00 | 0.00 | 33 | 1012.5 |
| 20260505193934 | 76 | 279 | 6.1 | 13.9 | 0.00 | 0.00 | 0.00 | 27 | 1012.6 |
| 20260505193432 | 77 | 165 | 8.7 | 12.2 | 0.00 | 0.00 | 0.00 | 26 | 1012.7 |
| 20260505192930 | 77 | 142 | 4.3 | 15.6 | 0.00 | 0.00 | 0.00 | 27 | 1012.6 |
| 20260505192428 | 76 | 228 | 9.6 | 14.8 | 0.00 | 0.00 | 0.00 | 25 | 1012.8 |
| 20260505191925 | 77 | 192 | 7.8 | 13.0 | 0.00 | 0.00 | 0.00 | 26 | 1012.8 |
| 20260505191424 | 77 | 244 | 5.2 | 13.9 | 0.00 | 0.00 | 0.00 | 27 | 1012.7 |
| 20260505190920 | 77 | 200 | 10.4 | 14.8 | 0.00 | 0.00 | 0.00 | 30 | 1012.7 |
| 20260505190416 | 76 | 209 | 9.6 | 18.2 | 0.00 | 0.00 | 0.00 | 29 | 1012.9 |
| 20260505185911 | 76 | 226 | 5.2 | 16.5 | 0.00 | 0.00 | 0.00 | 30 | 1012.9 |
| 20260505185409 | 77 | 241 | 5.2 | 9.6 | 0.00 | 0.00 | 0.00 | 31 | 1012.7 |
| 20260505184904 | 76 | 263 | 5.2 | 13.0 | 0.00 | 0.00 | 0.00 | 31 | 1012.8 |
| 20260505184401 | 77 | 290 | 5.2 | 9.6 | 0.00 | 0.00 | 0.00 | 34 | 1012.9 |
| 20260505183858 | 77 | 179 | 5.2 | 14.8 | 0.00 | 0.00 | 0.00 | 32 | 1012.8 |
| 20260505183355 | 77 | 189 | 8.7 | 11.3 | 0.00 | 0.00 | 0.00 | 32 | 1013.2 |
| 20260505182852 | 76 | 244 | 4.3 | 7.8 | 0.00 | 0.00 | 0.00 | 34 | 1013.2 |
| 20260505182349 | 77 | 199 | 7.0 | 9.6 | 0.00 | 0.00 | 0.00 | 33 | 1012.9 |
| 20260505181845 | 77 | 225 | 5.2 | 15.6 | 0.00 | 0.00 | 0.00 | 33 | 1013.3 |
| 20260505181343 | 77 | 258 | 5.2 | 9.6 | 0.00 | 0.00 | 0.00 | 35 | 1013.4 |
| 20260505180839 | 77 | 220 | 7.0 | 13.0 | 0.00 | 0.00 | 0.00 | 32 | 1013.4 |
| 20260505180336 | 77 | 262 | 5.2 | 7.0 | 0.00 | 0.00 | 0.00 | 33 | 1013.2 |
| 20260505175832 | 77 | 202 | 5.2 | 7.8 | 0.00 | 0.00 | 0.00 | 31 | 1013.5 |
| 20260505175329 | 77 | 261 | 3.5 | 7.8 | 0.00 | 0.00 | 0.00 | 32 | 1013.6 |
| 20260505174825 | 76 | 150 | 2.6 | 9.6 | 0.00 | 0.00 | 0.00 | 31 | 1013.7 |
| 20260505174323 | 76 | 213 | 7.8 | 13.9 | 0.00 | 0.00 | 0.00 | 32 | 1013.4 |
| 20260505173819 | 77 | 336 | 5.2 | 11.3 | 0.00 | 0.00 | 0.00 | 32 | 1013.8 |
| 20260505173315 | 76 | 257 | 3.5 | 6.1 | 0.00 | 0.00 | 0.00 | 37 | 1013.7 |
| 20260505172813 | 76 | 218 | 7.0 | 9.6 | 0.00 | 0.00 | 0.00 | 32 | 1013.7 |
| 20260505172310 | 77 | 184 | 7.0 | 11.3 | 0.00 | 0.00 | 0.00 | 33 | 1013.8 |
| 20260505171804 | 76 | 231 | 3.5 | 7.0 | 0.00 | 0.00 | 0.00 | 34 | 1014.1 |
| 20260505171301 | 76 | 225 | 4.3 | 11.3 | 0.00 | 0.00 | 0.00 | 33 | 1014.1 |
| 20260505170758 | 76 | 263 | 5.2 | 11.3 | 0.00 | 0.00 | 0.00 | 36 | 1014.1 |
| 20260505170255 | 75 | 217 | 7.8 | 13.9 | 0.00 | 0.00 | 0.00 | 34 | 1014.3 |
| 20260505165750 | 75 | 206 | 4.3 | 9.6 | 0.00 | 0.00 | 0.00 | 33 | 1014.2 |
| 20260505165246 | 75 | 273 | 6.1 | 9.6 | 0.00 | 0.00 | 0.00 | 35 | 1014.4 |
| 20260505164742 | 74 | 206 | 5.2 | 8.7 | 0.00 | 0.00 | 0.00 | 37 | 1014.4 |
| 20260505164239 | 75 | 268 | 6.1 | 11.3 | 0.00 | 0.00 | 0.00 | 37 | 1014.3 |
| 20260505163737 | 74 | 188 | 5.2 | 11.3 | 0.00 | 0.00 | 0.00 | 37 | 1014.5 |
| 20260505163236 | 74 | 189 | 3.5 | 11.3 | 0.00 | 0.00 | 0.00 | 37 | 1014.4 |
| 20260505162732 | 73 | 162 | 5.2 | 11.3 | 0.00 | 0.00 | 0.00 | 38 | 1014.6 |
| 20260505162229 | 73 | 200 | 4.3 | 7.8 | 0.00 | 0.00 | 0.00 | 39 | 1014.8 |
| 20260505161726 | 73 | 207 | 7.0 | 11.3 | 0.00 | 0.00 | 0.00 | 38 | 1014.6 |
| 20260505161224 | 73 | 284 | 6.1 | 8.7 | 0.00 | 0.00 | 0.00 | 35 | 1014.7 |
| 20260505160721 | 72 | 237 | 7.8 | 13.9 | 0.00 | 0.00 | 0.00 | 39 | 1015.1 |
| 20260505160219 | 73 | 259 | 9.6 | 12.2 | 0.00 | 0.00 | 0.00 | 35 | 1015.2 |
| 20260505153158 | 71 | 200 | 7.0 | 13.0 | 0.00 | 0.00 | 0.00 | 41 | 1015.5 |
| 20260505152654 | 71 | 170 | 9.6 | 13.0 | 0.00 | 0.00 | 0.00 | 40 | 1015.6 |
| 20260505152150 | 71 | 222 | 6.1 | 9.6 | 0.00 | 0.00 | 0.00 | 42 | 1015.4 |
| 20260505151646 | 71 | 219 | 5.2 | 9.6 | 0.00 | 0.00 | 0.00 | 42 | 1015.3 |
| 20260505151143 | 71 | 285 | 3.5 | 9.6 | 0.00 | 0.00 | 0.00 | 41 | 1015.3 |
| 20260505150639 | 71 | 188 | 7.8 | 9.6 | 0.00 | 0.00 | 0.00 | 40 | 1015.5 |
| 20260505150137 | 71 | 253 | 3.5 | 7.8 | 0.00 | 0.00 | 0.00 | 42 | 1015.2 |
| 20260505140605 | 69 | 232 | 6.1 | 8.7 | 0.00 | 0.00 | 0.00 | 46 | 1015.6 |
| 20260505125018 | 64 | 276 | 4.3 | 6.1 | 0.00 | 0.00 | 0.00 | 54 | 1015.5 |
| 20260505124515 | 64 | 209 | 1.7 | 3.5 | 0.00 | 0.00 | 0.00 | 59 | 1015.6 |
| 20260505124011 | 64 | 264 | 0.0 | 5.2 | 0.00 | 0.00 | 0.00 | 52 | 1015.6 |
| 20260505123508 | 63 | 215 | 4.3 | 7.0 | 0.00 | 0.00 | 0.00 | 58 | 1015.5 |
| 20260505123004 | 62 | 151 | 3.5 | 6.1 | 0.00 | 0.00 | 0.00 | 60 | 1015.6 |
| 20260505122501 | 62 | 275 | 3.5 | 5.2 | 0.00 | 0.00 | 0.00 | 61 | 1015.5 |
| 20260505121958 | 61 | 258 | 0.9 | 6.1 | 0.00 | 0.00 | 0.00 | 61 | 1015.6 |
| 20260505121455 | 59 | 251 | 0.0 | 1.7 | 0.00 | 0.00 | 0.00 | 72 | 1015.7 |
| 20260505120951 | 58 | 191 | 3.5 | 5.2 | 0.00 | 0.00 | 0.00 | 68 | 1015.7 |
| 20260505120447 | 58 | 205 | 2.6 | 5.2 | 0.00 | 0.00 | 0.00 | 70 | 1015.7 |
| 20260505115946 | 57 | 219 | 1.7 | 3.5 | 0.00 | 0.00 | 0.00 | 70 | 1015.7 |
| 20260505115443 | 56 | 53 | 0.9 | 3.5 | 0.00 | 0.00 | 0.00 | 76 | 1015.8 |
| 20260505114942 | 55 | 243 | 3.5 | 6.1 | 0.00 | 0.00 | 0.00 | 76 | 1015.9 |
| 20260505114437 | 55 | 213 | 0.9 | 2.6 | 0.00 | 0.00 | 0.00 | 77 | 1016.1 |
| 20260505113934 | 55 | 216 | 3.5 | 5.2 | 0.00 | 0.00 | 0.00 | 75 | 1016.1 |
| 20260505113430 | 54 | 217 | 4.3 | 6.1 | 0.00 | 0.00 | 0.00 | 75 | 1016.2 |
| 20260505112926 | 53 | 152 | 2.6 | 6.1 | 0.00 | 0.00 | 0.00 | 79 | 1016.0 |
| 20260505112424 | 52 | 191 | 3.5 | 7.0 | 0.00 | 0.00 | 0.00 | 78 | 1016.1 |
| 20260505111920 | 51 | 182 | 1.7 | 2.6 | 0.00 | 0.00 | 0.00 | 82 | 1016.0 |
| 20260505111415 | 51 | 159 | 1.7 | 3.5 | 0.00 | 0.00 | 0.00 | 82 | 1016.1 |
| 20260505110911 | 49 | 191 | 1.7 | 6.1 | 0.00 | 0.00 | 0.00 | 84 | 1016.0 |
| 20260505110408 | 49 | 258 | 0.9 | 1.7 | 0.00 | 0.00 | 0.00 | 86 | 1015.9 |
| 20260505101839 | 49 | 62 | 0.9 | 0.9 | 0.00 | 0.00 | 0.00 | 87 | 1015.3 |
| 20260505101334 | 49 | 146 | 0.9 | 1.7 | 0.00 | 0.00 | 0.00 | 86 | 1015.4 |
| 20260505100830 | 49 | 62 | 0.9 | 0.9 | 0.00 | 0.00 | 0.00 | 85 | 1015.3 |
| 20260505100327 | 49 | 270 | 0.9 | 2.6 | 0.00 | 0.00 | 0.00 | 85 | 1015.2 |